GW3271 Weather Reports


Display with metric or nautical units.
time (UTC)temp
F
wind
direction
speed
MPH
gust
MPH
rain 1hr
in
rain 24hr
in
rain mn
in
humidity
%
barometer
mb
20260903111531 81 240 0.0 5.0 0.00 0.00 0.00 84 1013.3
20260903110032 81 231 1.0 6.0 0.00 0.00 0.00 84 1013.2
20260903104534 81 298 1.0 5.0 0.00 0.00 0.00 84 1013.1
20260903103034 81 196 0.0 5.0 0.00 0.00 0.00 84 1013.0
20260903101534 81 262 1.0 6.0 0.00 0.00 0.00 84 1013.0
20260903100031 81 0 0.0 4.0 0.00 0.00 0.00 84 1013.0
20260903094540 81 0 1.0 6.0 0.00 0.00 0.00 84 1013.1
20260903093049 81 233 2.0 7.0 0.00 0.00 0.00 84 1013.2
20260903091535 81 210 1.0 8.0 0.00 0.00 0.00 83 1013.3
20260903090038 81 231 1.0 7.0 0.00 0.00 0.00 83 1013.3
20260903084534 81 230 1.0 10.0 0.00 0.00 0.00 83 1013.3
20260903083034 81 252 0.0 7.0 0.00 0.00 0.00 82 1013.3
20260903081542 81 188 2.0 7.0 0.00 0.00 0.00 82 1013.3
20260903080036 82 219 1.0 7.0 0.00 0.00 0.00 81 1013.3
20260903074535 82 189 2.0 7.0 0.00 0.00 0.00 80 1013.4
20260903073034 82 239 1.0 5.0 0.00 0.00 0.00 80 1013.5
20260903071537 82 281 1.0 6.0 0.00 0.00 0.00 79 1013.6
20260903070035 82 206 1.0 7.0 0.00 0.00 0.00 78 1013.7
20260903064533 83 239 2.0 6.0 0.00 0.00 0.00 77 1013.7
20260903063034 83 0 1.0 7.0 0.00 0.00 0.00 76 1013.9
20260903061534 83 276 3.0 7.0 0.00 0.00 0.00 74 1013.9
20260903060037 84 0 1.0 5.0 0.00 0.00 0.00 71 1013.9
20260903054535 84 134 1.0 5.0 0.00 0.00 0.00 69 1013.9
20260903053037 84 262 2.0 11.0 0.00 0.00 0.00 67 1013.9
20260903051538 85 176 1.0 6.0 0.00 0.00 0.00 66 1013.7
20260903050037 85 44 1.0 9.0 0.00 0.00 0.00 66 1013.8
20260903044536 85 57 2.0 9.0 0.00 0.00 0.00 67 1013.8
20260903043036 84 54 1.0 11.0 0.00 0.00 0.00 67 1013.6
20260903041535 84 72 3.0 9.0 0.00 0.00 0.00 69 1013.5
20260903040036 85 53 4.0 9.0 0.00 0.00 0.00 69 1013.3
20260903034533 85 67 4.0 12.0 0.00 0.00 0.00 67 1013.2
20260903033035 86 104 6.0 15.0 0.00 0.00 0.00 63 1013.3
20260903031539 88 79 3.0 13.0 0.00 0.00 0.00 59 1013.3
20260903030033 89 75 2.0 6.0 0.00 0.00 0.00 58 1012.9
20260903024534 89 82 0.0 9.0 0.00 0.00 0.00 58 1012.5
20260903023055 90 74 1.0 4.0 0.00 0.00 0.00 56 1012.1
20260903021543 90 63 2.0 4.0 0.00 0.00 0.00 54 1012.0
20260903020036 91 77 0.0 3.0 0.00 0.00 0.00 53 1011.4
20260903014534 91 65 0.0 4.0 0.00 0.00 0.00 52 1011.3
20260903013034 92 53 1.0 5.0 0.00 0.00 0.00 51 1011.2
20260903011532 92 104 1.0 6.0 0.00 0.00 0.00 51 1011.3
20260903010033 92 123 1.0 6.0 0.00 0.00 0.00 50 1011.2
20260903004534 93 59 1.0 11.0 0.00 0.00 0.00 49 1011.3
20260903003034 94 62 2.0 8.0 0.00 0.00 0.00 47 1011.3
20260903001535 95 51 2.0 7.0 0.00 0.00 0.00 46 1011.2
20260903000035 97 108 1.0 4.0 0.00 0.00 0.00 45 1011.1
20260902234537 99 0 0.0 1.0 0.00 0.00 0.00 40 1011.0
20260902233035 99 0 1.0 4.0 0.00 0.00 0.00 39 1011.1
20260902231551 99 0 0.0 1.0 0.00 0.00 0.00 40 1011.1
20260902230036 99 276 1.0 4.0 0.00 0.00 0.00 40 1011.1
20260902224536 100 275 1.0 3.0 0.00 0.00 0.00 41 1011.1
20260902223033 100 268 1.0 8.0 0.00 0.00 0.00 41 1011.1
20260902221534 100 270 1.0 3.0 0.00 0.00 0.00 40 1011.2
20260902220033 101 282 1.0 7.0 0.00 0.00 0.00 39 1011.2
20260902214538 101 272 1.0 6.0 0.00 0.00 0.00 39 1011.2
20260902213036 100 245 1.0 7.0 0.00 0.00 0.00 40 1011.4
20260902211536 101 239 2.0 4.0 0.00 0.00 0.00 38 1011.6
20260902210039 101 286 0.0 3.0 0.00 0.00 0.00 40 1011.7
20260902204535 101 255 1.0 6.0 0.00 0.00 0.00 40 1012.0
20260902203034 98 0 0.0 1.0 0.00 0.00 0.00 44 1012.0
20260902201534 98 165 0.0 1.0 0.00 0.00 0.00 42 1012.4
20260902200033 99 229 0.0 10.0 0.00 0.00 0.00 41 1012.5
20260902194532 99 0 0.0 1.0 0.00 0.00 0.00 41 1012.8
20260902193035 98 0 0.0 1.0 0.00 0.00 0.00 41 1013.1
20260902191532 100 309 0.0 2.0 0.00 0.00 0.00 40 1013.4
20260902190035 103 0 0.0 5.0 0.00 0.00 0.00 37 1013.5
20260902184534 102 198 1.0 4.0 0.00 0.00 0.00 38 1013.7
20260902183033 102 342 1.0 7.0 0.00 0.00 0.00 40 1014.0
20260902181537 102 264 1.0 3.0 0.00 0.00 0.00 39 1014.3
20260902180032 100 172 1.0 7.0 0.00 0.00 0.00 41 1014.5
20260902174533 99 238 1.0 2.0 0.00 0.00 0.00 43 1014.7
20260902173036 99 266 1.0 5.0 0.00 0.00 0.00 44 1015.1
20260902171539 98 0 1.0 5.0 0.00 0.00 0.00 46 1015.2
20260902170035 97 269 1.0 5.0 0.00 0.00 0.00 47 1015.3
20260902164535 96 321 1.0 3.0 0.00 0.00 0.00 48 1015.6
20260902163032 95 230 0.0 3.0 0.00 0.00 0.00 50 1015.8
20260902161539 95 15 0.0 2.0 0.00 0.00 0.00 52 1015.9
20260902160046 93 0 1.0 4.0 0.00 0.00 0.00 55 1015.9
20260902154537 92 0 0.0 3.0 0.00 0.00 0.00 57 1015.9
20260902153033 91 210 0.0 2.0 0.00 0.00 0.00 60 1016.0
20260902151533 89 0 0.0 3.0 0.00 0.00 0.00 63 1016.1
20260902150033 88 0 0.0 2.0 0.00 0.00 0.00 64 1016.0
20260902144534 86 264 0.0 2.0 0.00 0.00 0.00 67 1016.1
20260902143032 86 248 1.0 3.0 0.00 0.00 0.00 67 1016.1
20260902141535 86 252 1.0 3.0 0.00 0.00 0.00 68 1016.0
20260902140036 85 265 1.0 2.0 0.00 0.00 0.00 70 1016.1
20260902134533 84 0 0.0 2.0 0.00 0.00 0.00 70 1016.0
20260902133033 82 0 0.0 2.0 0.00 0.00 0.00 72 1015.9
20260902131535 80 167 0.0 0.0 0.00 0.00 0.00 76 1015.6
20260902130034 79 0 0.0 0.0 0.00 0.00 0.00 79 1015.5
20260902124534 77 0 0.0 0.0 0.00 0.00 0.00 81 1015.5
20260902123035 77 0 0.0 0.0 0.00 0.00 0.00 81 1015.2
20260902121533 78 0 0.0 0.0 0.00 0.00 0.00 79 1015.1
20260902120034 78 0 0.0 0.0 0.00 0.00 0.00 80 1015.1
20260902114607 77 0 0.0 0.0 0.00 0.00 0.00 80 1015.0
20260902113032 78 0 0.0 0.0 0.00 0.00 0.00 79 1014.8